EW3204 Weather Reports


Display with metric or nautical units.
time (UTC)temp
F
wind
direction
speed
MPH
gust
MPH
rain 1hr
in
rain 24hr
in
rain mn
in
humidity
%
barometer
mb
20260507021552 80 79 2.0 0.0 0.00 0.00 0.00 19 1010.9
20260507020054 81 74 2.0 0.0 0.00 0.00 0.00 18 1010.9
20260507014555 81 84 3.0 0.0 0.00 0.00 0.00 18 1011.0
20260507013108 82 109 2.0 0.0 0.00 0.00 0.00 18 1010.9
20260507011551 82 124 4.0 0.0 0.00 0.00 0.00 18 1010.9
20260507004550 82 167 2.0 0.0 0.00 0.00 0.00 18 1010.9
20260507003048 82 127 6.0 0.0 0.00 0.00 0.00 18 1011.0
20260507001551 82 108 4.0 0.0 0.00 0.00 0.00 18 1010.9
20260507000047 82 63 7.0 0.0 0.00 0.00 0.00 18 1011.0
20260506234548 82 101 5.0 0.0 0.00 0.00 0.00 19 1011.0
20260506233059 82 130 2.0 0.0 0.00 0.00 0.00 19 1011.1
20260506231542 82 83 4.0 0.0 0.00 0.00 0.00 19 1011.2
20260506230039 82 111 7.0 0.0 0.00 0.00 0.00 19 1011.4
20260506224537 81 142 6.0 0.0 0.00 0.00 0.00 19 1011.6
20260506223034 81 35 5.0 0.0 0.00 0.00 0.00 19 1011.9
20260506221533 81 114 4.0 0.0 0.00 0.00 0.00 19 1012.1
20260506220031 80 55 4.0 0.0 0.00 0.00 0.00 20 1012.3
20260506214528 81 143 4.0 0.0 0.00 0.00 0.00 20 1012.5
20260506213027 80 104 5.0 0.0 0.00 0.00 0.00 20 1012.7
20260506211528 80 89 5.0 0.0 0.00 0.00 0.00 20 1013.0
20260506210032 80 152 7.0 0.0 0.00 0.00 0.00 20 1013.1
20260506204523 79 128 4.0 0.0 0.00 0.00 0.00 20 1013.3
20260506203021 79 93 6.0 0.0 0.00 0.00 0.00 21 1013.4
20260506201519 79 33 4.0 0.0 0.00 0.00 0.00 22 1013.6
20260506200032 77 217 6.0 0.0 0.00 0.00 0.00 23 1013.9
20260506194516 77 291 5.0 0.0 0.00 0.00 0.00 22 1014.2
20260506193014 77 80 6.0 0.0 0.00 0.00 0.00 24 1014.2
20260506191512 77 75 4.0 0.0 0.00 0.00 0.00 24 1014.3
20260506190009 76 111 4.0 0.0 0.00 0.00 0.00 25 1014.5
20260506184508 75 46 5.0 0.0 0.00 0.00 0.00 27 1014.6
20260506183009 75 120 5.0 0.0 0.00 0.00 0.00 27 1014.8
20260506181509 75 81 4.0 0.0 0.00 0.00 0.00 27 1014.9
20260506180013 75 140 3.0 0.0 0.00 0.00 0.00 28 1014.9
20260506174501 73 102 4.0 0.0 0.00 0.00 0.00 29 1015.1
20260506173112 73 149 5.0 0.0 0.00 0.00 0.00 30 1015.0
20260506171605 72 72 4.0 0.0 0.00 0.00 0.00 31 1015.0
20260506170100 71 92 4.0 0.0 0.00 0.00 0.00 32 1014.9
20260506164611 70 57 3.0 0.0 0.00 0.00 0.00 33 1014.8
20260506163055 70 88 3.0 0.0 0.00 0.00 0.00 34 1014.8
20260506161551 69 127 4.0 0.0 0.00 0.00 0.00 35 1014.9
20260506160050 68 104 2.0 0.0 0.00 0.00 0.00 35 1014.8
20260506154550 67 76 3.0 0.0 0.00 0.00 0.00 36 1014.8
20260506153040 66 65 2.0 0.0 0.00 0.00 0.00 38 1014.9
20260506151539 66 71 1.0 0.0 0.00 0.00 0.00 37 1014.9
20260506150037 65 52 0.0 0.0 0.00 0.00 0.00 40 1014.8
20260506144532 63 301 1.0 0.0 0.00 0.00 0.00 43 1014.8
20260506143033 61 301 0.0 0.0 0.00 0.00 0.00 45 1014.6
20260506141525 59 301 0.0 0.0 0.00 0.00 0.00 48 1014.6
20260506140026 57 301 0.0 0.0 0.00 0.00 0.00 52 1014.5
20260506134523 55 301 0.0 0.0 0.00 0.00 0.00 55 1014.3
20260506133021 54 300 2.0 0.0 0.00 0.00 0.00 55 1014.1
20260506131519 54 301 2.0 0.0 0.00 0.00 0.00 53 1013.8
20260506130017 53 301 4.0 0.0 0.00 0.00 0.00 57 1013.6
20260506124514 53 301 1.0 0.0 0.00 0.00 0.00 56 1013.5
20260506123014 53 301 2.0 0.0 0.00 0.00 0.00 57 1013.3
20260506121515 53 301 2.0 0.0 0.00 0.00 0.00 57 1013.2
20260506120011 52 301 3.0 0.0 0.00 0.00 0.00 57 1013.1
20260506114510 53 295 1.0 0.0 0.00 0.00 0.00 55 1013.1
20260506113008 55 5 1.0 0.0 0.00 0.00 0.00 52 1012.9
20260506111505 54 5 0.0 0.0 0.00 0.00 0.00 53 1012.9
20260506110004 55 5 3.0 0.0 0.00 0.00 0.00 53 1012.9
20260506104504 54 5 2.0 0.0 0.00 0.00 0.00 53 1013.0
20260506103059 56 102 1.0 0.0 0.00 0.00 0.00 50 1012.9
20260506101558 56 138 3.0 0.0 0.00 0.00 0.00 50 1012.8
20260506100056 58 95 3.0 0.0 0.00 0.00 0.00 47 1012.8
20260506100022 58 151 2.0 0.0 0.00 0.00 0.00 47 1012.8
20260506094555 58 356 1.0 0.0 0.00 0.00 0.00 47 1012.6
20260506093055 60 275 5.0 0.0 0.00 0.00 0.00 47 1012.6
20260506091551 58 223 3.0 0.0 0.00 0.00 0.00 48 1012.7
20260506090047 59 162 5.0 0.0 0.00 0.00 0.00 45 1013.0
20260506084546 60 265 7.0 0.0 0.00 0.00 0.00 46 1012.9
20260506083047 60 286 5.0 0.0 0.00 0.00 0.00 46 1013.1
20260506081549 60 225 3.0 0.0 0.00 0.00 0.00 45 1013.1
20260506073039 60 229 7.0 0.0 0.00 0.00 0.00 45 1013.1
20260506071547 60 325 1.0 0.0 0.00 0.00 0.00 47 1013.0
20260506061508 61 293 8.0 0.0 0.00 0.00 0.00 44 1012.7
20260506044502 62 317 10.0 0.0 0.00 0.00 0.00 42 1012.0
20260506043004 62 288 8.0 0.0 0.00 0.00 0.00 41 1012.1
20260506041600 62 241 10.0 0.0 0.00 0.00 0.00 41 1011.9
20260506040100 62 294 12.0 0.0 0.00 0.00 0.00 41 1011.7
20260506034555 63 274 12.0 0.0 0.00 0.00 0.00 40 1011.5
20260506033055 63 296 12.0 0.0 0.00 0.00 0.00 40 1011.2
20260506031601 63 273 13.0 0.0 0.00 0.00 0.00 39 1011.0
20260506030111 63 257 13.0 0.0 0.00 0.00 0.00 38 1010.9
20260506024554 63 280 10.0 0.0 0.00 0.00 0.00 37 1010.7
20260506023055 63 269 12.0 0.0 0.00 0.00 0.00 35 1010.6